Tracking 19242 objects as of 19-Sep-2018
HD Live streaming from Space Station
objects crossing your sky now

FENGYUN 1C DEB

Track FENGYUN 1C DEB now!
10-day predictions


NORAD ID: 38820
Int'l Code: 1999-025EVL
Perigee: 766.9 km
Apogee: 1,189.6 km
Inclination: 98.2 °
Period: 104.5 minutes
Semi major axis: 7349 km
RCS: 0.0112 m2 (small)
Launch date: May 10, 1999
Source: People's Republic of China (PRC)
Launch site: Taiyaun Space Center, China (TSC)

Note: This is SATELLITE DEBRIS
aabbcc
Your satellite tracking list
Your tracking list is empty




NASA's NSSDC Master Catalog

Two Line Element Set (TLE):
1 38820U 99025EVL 18262.26418031  .00000769  00000-0  58839-3 0  9998
2 38820  98.2396  68.9245 0287582 138.9466 346.2549 13.77959320307035
Source of the keplerian elements: AFSPC